TECHNOSAT (42829 NORAD) Tracking and Keplerian Element Data

This shows tracking and keplerian element data for the satellite.

Feedback or suggestion? Click here.




ElementValue
Catalog42829
NameTECHNOSAT
Epoch Orbit9606
Epoch Day110.150152
Epoch Year2019
RAAN5.485
Inclination97.5707
Eccentricity0.001269
Argument of Perigee257.1992
Mean Anonmoly102.7809
Mean Motion14.90949756
Decay Rate4.1E-07
L11 42829U 17042E 19110.15015200 .00000041 00000-0 95991-5 0 9998
L22 42829 97.5707 5.4850 0012690 257.1992 102.7809 14.90949756 96069

Live tracking and technical data element details for TECHNOSAT (NORAD 42829). TECHNOSAT can be tracked NOW for your location showing map with azimuth and elevation plus other details from your city location.

Track the satellite on the map from your city or location and see movement details for azimuth, elevation, latitude, longitude, range, height, and movement on the map or in text.







IsCatalogInMostPopularTable: catalog: 42829, numindb: 288
Update: records affected: 1



GetName: 42829 TECHNOSAT

Hit Count: updated at: Sat, 20 Apr 2019 20:49:48 GMT